Time,TemperatureF,DewpointF,PressureIn,WindDirection,WindDirectionDegrees,WindSpeedMPH,WindSpeedGustMPH,Humidity,HourlyPrecipIn,Conditions,Clouds,dailyrainin,SoftwareType,DateUTC
2013-03-25 00:02:00,12.0,-2.0,30.03,North,-999,-999.0,-999.0,53,-99.99,,,-99.99,,2013-03-25 06:02:00,
2013-03-25 00:12:00,12.0,-2.0,30.03,North,-999,-999.0,-999.0,53,-99.99,,,-99.99,,2013-03-25 06:12:00,
2013-03-25 00:22:00,12.0,-1.0,30.03,North,-999,-999.0,-999.0,54,-99.99,,,-99.99,,2013-03-25 06:22:00,
2013-03-25 00:32:00,11.0,-2.0,30.03,North,-999,-999.0,-999.0,55,-99.99,,,-99.99,,2013-03-25 06:32:00,
2013-03-25 00:42:00,11.0,-2.0,30.03,North,-999,-999.0,-999.0,55,-99.99,,,-99.99,,2013-03-25 06:42:00,
2013-03-25 00:52:00,11.0,-2.0,30.04,North,-999,-999.0,-999.0,56,-99.99,,,-99.99,,2013-03-25 06:52:00,
2013-03-25 01:02:00,11.0,-2.0,30.04,North,-999,-999.0,-999.0,56,-99.99,,,-99.99,,2013-03-25 07:02:00,
2013-03-25 01:12:00,11.0,-2.0,30.04,North,-999,-999.0,-999.0,56,-99.99,,,-99.99,,2013-03-25 07:12:00,
2013-03-25 01:21:00,10.0,-2.0,30.04,North,-999,-999.0,-999.0,58,-99.99,,,-99.99,,2013-03-25 07:21:00,
2013-03-25 01:31:00,10.0,-1.0,30.04,North,-999,-999.0,-999.0,60,-99.99,,,-99.99,,2013-03-25 07:31:00,
2013-03-25 01:42:00,10.0,-1.0,30.04,North,-999,-999.0,-999.0,60,-99.99,,,-99.99,,2013-03-25 07:42:00,
2013-03-25 01:52:00,10.0,-1.0,30.04,North,-999,-999.0,-999.0,59,-99.99,,,-99.99,,2013-03-25 07:52:00,
2013-03-25 02:02:00,9.0,-1.0,30.04,North,-999,-999.0,-999.0,62,-99.99,,,-99.99,,2013-03-25 08:02:00,
2013-03-25 02:12:00,9.0,-1.0,30.04,North,-999,-999.0,-999.0,62,-99.99,,,-99.99,,2013-03-25 08:12:00,
2013-03-25 02:22:00,7.0,-2.0,30.04,North,-999,-999.0,-999.0,67,-99.99,,,-99.99,,2013-03-25 08:22:00,
2013-03-25 02:32:00,7.0,-2.0,30.04,North,-999,-999.0,-999.0,66,-99.99,,,-99.99,,2013-03-25 08:32:00,
2013-03-25 02:42:00,7.0,-2.0,30.04,North,-999,-999.0,-999.0,66,-99.99,,,-99.99,,2013-03-25 08:42:00,
2013-03-25 02:52:00,8.0,-2.0,30.04,North,-999,-999.0,-999.0,64,-99.99,,,-99.99,,2013-03-25 08:52:00,
2013-03-25 03:02:00,8.0,-2.0,30.04,North,-999,-999.0,-999.0,62,-99.99,,,-99.99,,2013-03-25 09:02:00,
2013-03-25 03:11:00,8.0,-2.0,30.04,North,-999,-999.0,-999.0,62,-99.99,,,-99.99,,2013-03-25 09:11:00,
2013-03-25 03:22:00,8.0,-3.0,30.04,North,-999,-999.0,-999.0,60,-99.99,,,-99.99,,2013-03-25 09:22:00,
2013-03-25 03:32:00,7.0,-3.0,30.04,North,-999,-999.0,-999.0,63,-99.99,,,-99.99,,2013-03-25 09:32:00,
2013-03-25 03:42:00,7.0,-3.0,30.04,North,-999,-999.0,-999.0,63,-99.99,,,-99.99,,2013-03-25 09:42:00,
2013-03-25 03:52:00,6.0,-3.0,30.04,North,-999,-999.0,-999.0,66,-99.99,,,-99.99,,2013-03-25 09:52:00,
2013-03-25 04:02:00,5.0,-2.0,30.04,North,-999,-999.0,-999.0,71,-99.99,,,-99.99,,2013-03-25 10:02:00,
2013-03-25 04:12:00,5.0,-2.0,30.04,North,-999,-999.0,-999.0,71,-99.99,,,-99.99,,2013-03-25 10:12:00,
2013-03-25 04:22:00,4.0,-3.0,30.04,North,-999,-999.0,-999.0,72,-99.99,,,-99.99,,2013-03-25 10:22:00,
2013-03-25 04:32:00,4.0,-3.0,30.04,North,-999,-999.0,-999.0,73,-99.99,,,-99.99,,2013-03-25 10:32:00,
2013-03-25 04:42:00,4.0,-3.0,30.04,North,-999,-999.0,-999.0,73,-99.99,,,-99.99,,2013-03-25 10:42:00,
2013-03-25 04:53:00,4.0,-3.0,30.04,North,-999,-999.0,-999.0,72,-99.99,,,-99.99,,2013-03-25 10:53:00,
2013-03-25 05:02:00,3.0,-4.0,30.04,North,-999,-999.0,-999.0,73,-99.99,,,-99.99,,2013-03-25 11:02:00,
2013-03-25 05:12:00,3.0,-4.0,30.04,North,-999,-999.0,-999.0,73,-99.99,,,-99.99,,2013-03-25 11:12:00,
2013-03-25 05:23:00,2.0,-4.0,30.04,North,-999,-999.0,-999.0,77,-99.99,,,-99.99,,2013-03-25 11:23:00,
2013-03-25 05:32:00,3.0,-3.0,30.04,North,-999,-999.0,-999.0,77,-99.99,,,-99.99,,2013-03-25 11:32:00,
2013-03-25 05:42:00,3.0,-3.0,30.04,North,-999,-999.0,-999.0,77,-99.99,,,-99.99,,2013-03-25 11:42:00,
2013-03-25 05:52:00,3.0,-3.0,30.04,North,-999,-999.0,-999.0,76,-99.99,,,-99.99,,2013-03-25 11:52:00,
2013-03-25 06:02:00,3.0,-3.0,30.04,North,-999,-999.0,-999.0,76,-99.99,,,-99.99,,2013-03-25 12:02:00,
2013-03-25 06:12:00,3.0,-3.0,30.04,North,-999,-999.0,-999.0,76,-99.99,,,-99.99,,2013-03-25 12:12:00,
2013-03-25 06:22:00,2.0,-3.0,30.04,North,-999,-999.0,-999.0,78,-99.99,,,-99.99,,2013-03-25 12:22:00,
2013-03-25 06:32:00,0.0,-4.0,30.04,North,-999,-999.0,-999.0,81,-99.99,,,-99.99,,2013-03-25 12:32:00,
2013-03-25 06:42:00,0.0,-4.0,30.04,North,-999,-999.0,-999.0,81,-99.99,,,-99.99,,2013-03-25 12:42:00,
2013-03-25 06:53:00,1.0,-4.0,30.04,North,-999,-999.0,-999.0,79,-99.99,,,-99.99,,2013-03-25 12:53:00,
2013-03-25 07:02:00,0.0,-5.0,30.05,North,-999,-999.0,-999.0,79,-99.99,,,-99.99,,2013-03-25 13:02:00,
2013-03-25 07:12:00,0.0,-5.0,30.05,North,-999,-999.0,-999.0,79,-99.99,,,-99.99,,2013-03-25 13:12:00,
2013-03-25 07:22:00,0.0,-4.0,30.05,North,-999,-999.0,-999.0,81,-99.99,,,-99.99,,2013-03-25 13:22:00,
2013-03-25 07:32:00,-1.0,-5.0,30.05,North,-999,-999.0,-999.0,81,-99.99,,,-99.99,,2013-03-25 13:32:00,
2013-03-25 07:42:00,-1.0,-5.0,30.05,North,-999,-999.0,-999.0,81,-99.99,,,-99.99,,2013-03-25 13:42:00,
2013-03-25 07:52:00,-1.0,-5.0,30.07,North,-999,-999.0,-999.0,82,-99.99,,,-99.99,,2013-03-25 13:52:00,
2013-03-25 08:02:00,0.0,-4.0,30.07,North,-999,-999.0,-999.0,82,-99.99,,,-99.99,,2013-03-25 14:02:00,
2013-03-25 08:12:00,0.0,-4.0,30.07,North,-999,-999.0,-999.0,82,-99.99,,,-99.99,,2013-03-25 14:12:00,
2013-03-25 08:22:00,0.0,-5.0,30.07,North,-999,-999.0,-999.0,80,-99.99,,,-99.99,,2013-03-25 14:22:00,
2013-03-25 08:32:00,0.0,-5.0,30.07,North,-999,-999.0,-999.0,79,-99.99,,,-99.99,,2013-03-25 14:32:00,
2013-03-25 08:42:00,0.0,-5.0,30.07,North,-999,-999.0,-999.0,79,-99.99,,,-99.99,,2013-03-25 14:42:00,
2013-03-25 08:53:00,0.0,-5.0,30.07,North,-999,-999.0,-999.0,79,-99.99,,,-99.99,,2013-03-25 14:53:00,
2013-03-25 09:02:00,1.0,-4.0,30.07,North,-999,-999.0,-999.0,78,-99.99,,,-99.99,,2013-03-25 15:02:00,
2013-03-25 09:12:00,1.0,-4.0,30.07,North,-999,-999.0,-999.0,78,-99.99,,,-99.99,,2013-03-25 15:12:00,
2013-03-25 09:22:00,2.0,-4.0,30.07,North,-999,-999.0,-999.0,75,-99.99,,,-99.99,,2013-03-25 15:22:00,
2013-03-25 09:32:00,1.0,-5.0,30.08,North,-999,-999.0,-999.0,74,-99.99,,,-99.99,,2013-03-25 15:32:00,
2013-03-25 09:42:00,1.0,-5.0,30.08,North,-999,-999.0,-999.0,74,-99.99,,,-99.99,,2013-03-25 15:42:00,
2013-03-25 09:53:00,2.0,-5.0,30.08,North,-999,-999.0,-999.0,72,-99.99,,,-99.99,,2013-03-25 15:53:00,
2013-03-25 10:00:00,5.0,-4.0,30.08,North,-999,-999.0,-999.0,64,-99.99,,,-99.99,,2013-03-25 16:00:00,
2013-03-25 10:03:00,3.0,-5.0,30.08,North,-999,-999.0,-999.0,69,-99.99,,,-99.99,,2013-03-25 16:03:00,
2013-03-25 10:12:00,3.0,-5.0,30.08,North,-999,-999.0,-999.0,69,-99.99,,,-99.99,,2013-03-25 16:12:00,
2013-03-25 10:23:00,3.0,-5.0,30.08,North,-999,-999.0,-999.0,69,-99.99,,,-99.99,,2013-03-25 16:23:00,
2013-03-25 10:32:00,5.0,-4.0,30.08,North,-999,-999.0,-999.0,64,-99.99,,,-99.99,,2013-03-25 16:32:00,
2013-03-25 10:42:00,5.0,-4.0,30.08,North,-999,-999.0,-999.0,64,-99.99,,,-99.99,,2013-03-25 16:42:00,
2013-03-25 10:53:00,5.0,-4.0,30.08,North,-999,-999.0,-999.0,64,-99.99,,,-99.99,,2013-03-25 16:53:00,
2013-03-25 12:32:00,12.0,-1.0,30.06,North,-999,-999.0,-999.0,55,-99.99,,,-99.99,,2013-03-25 18:32:00,
2013-03-25 12:42:00,13.0,0.0,30.06,North,-999,-999.0,-999.0,55,-99.99,,,-99.99,,2013-03-25 18:42:00,
2013-03-25 12:53:00,13.0,0.0,30.06,North,-999,-999.0,-999.0,55,-99.99,,,-99.99,,2013-03-25 18:53:00,
2013-03-25 13:02:00,14.0,0.0,30.05,North,-999,-999.0,-999.0,54,-99.99,,,-99.99,,2013-03-25 19:02:00,
2013-03-25 13:12:00,14.0,0.0,30.05,North,-999,-999.0,-999.0,54,-99.99,,,-99.99,,2013-03-25 19:12:00,
2013-03-25 13:22:00,16.0,2.0,30.05,North,-999,-999.0,-999.0,54,-99.99,,,-99.99,,2013-03-25 19:22:00,
2013-03-25 13:32:00,18.0,3.0,30.04,North,-999,-999.0,-999.0,50,-99.99,,,-99.99,,2013-03-25 19:32:00,
2013-03-25 13:42:00,18.0,3.0,30.04,North,-999,-999.0,-999.0,50,-99.99,,,-99.99,,2013-03-25 19:42:00,
2013-03-25 13:52:00,19.0,3.0,30.04,North,-999,-999.0,-999.0,48,-99.99,,,-99.99,,2013-03-25 19:52:00,
2013-03-25 14:02:00,19.0,3.0,30.04,North,-999,-999.0,-999.0,48,-99.99,,,-99.99,,2013-03-25 20:02:00,
2013-03-25 14:12:00,19.0,3.0,30.04,North,-999,-999.0,-999.0,48,-99.99,,,-99.99,,2013-03-25 20:12:00,
2013-03-25 15:22:00,27.0,0.0,30.01,North,-999,-999.0,-999.0,31,-99.99,,,-99.99,,2013-03-25 21:22:00,
2013-03-25 15:33:00,27.0,1.0,30.01,North,-999,-999.0,-999.0,32,-99.99,,,-99.99,,2013-03-25 21:33:00,
2013-03-25 15:42:00,27.0,1.0,30.01,North,-999,-999.0,-999.0,32,-99.99,,,-99.99,,2013-03-25 21:42:00,
2013-03-25 15:52:00,28.0,3.0,30.00,North,-999,-999.0,-999.0,33,-99.99,,,-99.99,,2013-03-25 21:52:00,
2013-03-25 16:03:00,29.0,4.0,30.00,North,-999,-999.0,-999.0,33,-99.99,,,-99.99,,2013-03-25 22:03:00,
2013-03-25 16:12:00,29.0,4.0,30.00,North,-999,-999.0,-999.0,33,-99.99,,,-99.99,,2013-03-25 22:12:00,
2013-03-25 16:23:00,29.0,4.0,29.99,North,-999,-999.0,-999.0,34,-99.99,,,-99.99,,2013-03-25 22:23:00,
2013-03-25 16:32:00,29.0,5.0,29.99,North,-999,-999.0,-999.0,35,-99.99,,,-99.99,,2013-03-25 22:32:00,
2013-03-25 16:42:00,29.0,5.0,29.99,North,-999,-999.0,-999.0,35,-99.99,,,-99.99,,2013-03-25 22:42:00,
2013-03-25 16:52:00,30.0,4.0,29.99,North,-999,-999.0,-999.0,33,-99.99,,,-99.99,,2013-03-25 22:52:00,
2013-03-25 17:02:00,30.0,4.0,29.99,North,-999,-999.0,-999.0,33,-99.99,,,-99.99,,2013-03-25 23:02:00,
2013-03-25 17:12:00,30.0,4.0,29.99,North,-999,-999.0,-999.0,33,-99.99,,,-99.99,,2013-03-25 23:12:00,
2013-03-25 17:22:00,31.0,3.0,29.99,North,-999,-999.0,-999.0,30,-99.99,,,-99.99,,2013-03-25 23:22:00,
2013-03-25 17:32:00,32.0,3.0,29.99,North,-999,-999.0,-999.0,28,-99.99,,,-99.99,,2013-03-25 23:32:00,
2013-03-25 17:42:00,32.0,3.0,29.99,North,-999,-999.0,-999.0,28,-99.99,,,-99.99,,2013-03-25 23:42:00,
2013-03-25 17:52:00,32.0,2.0,29.98,North,-999,-999.0,-999.0,27,-99.99,,,-99.99,,2013-03-25 23:52:00,
2013-03-25 18:02:00,33.0,2.0,29.98,North,-999,-999.0,-999.0,26,-99.99,,,-99.99,,2013-03-26 00:02:00,
2013-03-25 18:12:00,33.0,2.0,29.98,North,-999,-999.0,-999.0,26,-99.99,,,-99.99,,2013-03-26 00:12:00,
2013-03-25 18:22:00,32.0,-1.0,29.98,North,-999,-999.0,-999.0,24,-99.99,,,-99.99,,2013-03-26 00:22:00,
2013-03-25 18:32:00,32.0,-1.0,29.98,North,-999,-999.0,-999.0,24,-99.99,,,-99.99,,2013-03-26 00:32:00,
2013-03-25 18:42:00,32.0,-1.0,29.98,North,-999,-999.0,-999.0,24,-99.99,,,-99.99,,2013-03-26 00:42:00,
2013-03-25 18:52:00,31.0,3.0,29.98,North,-999,-999.0,-999.0,30,-99.99,,,-99.99,,2013-03-26 00:52:00,
2013-03-25 19:02:00,27.0,4.0,29.98,North,-999,-999.0,-999.0,37,-99.99,,,-99.99,,2013-03-26 01:02:00,
2013-03-25 19:12:00,27.0,4.0,29.98,North,-999,-999.0,-999.0,37,-99.99,,,-99.99,,2013-03-26 01:12:00,
2013-03-25 19:22:00,26.0,4.0,29.97,North,-999,-999.0,-999.0,39,-99.99,,,-99.99,,2013-03-26 01:22:00,
2013-03-25 19:32:00,25.0,6.0,29.97,North,-999,-999.0,-999.0,43,-99.99,,,-99.99,,2013-03-26 01:32:00,
2013-03-25 19:42:00,25.0,6.0,29.97,North,-999,-999.0,-999.0,43,-99.99,,,-99.99,,2013-03-26 01:42:00,
2013-03-25 19:52:00,25.0,5.0,29.97,North,-999,-999.0,-999.0,41,-99.99,,,-99.99,,2013-03-26 01:52:00,
2013-03-25 20:02:00,25.0,5.0,29.97,North,-999,-999.0,-999.0,41,-99.99,,,-99.99,,2013-03-26 02:02:00,
2013-03-25 20:12:00,25.0,5.0,29.97,North,-999,-999.0,-999.0,41,-99.99,,,-99.99,,2013-03-26 02:12:00,
2013-03-25 20:22:00,24.0,5.0,29.97,North,-999,-999.0,-999.0,43,-99.99,,,-99.99,,2013-03-26 02:22:00,
2013-03-25 20:32:00,24.0,4.0,29.97,North,-999,-999.0,-999.0,42,-99.99,,,-99.99,,2013-03-26 02:32:00,
2013-03-25 20:42:00,24.0,4.0,29.97,North,-999,-999.0,-999.0,42,-99.99,,,-99.99,,2013-03-26 02:42:00,
2013-03-25 20:52:00,24.0,4.0,29.97,North,-999,-999.0,-999.0,42,-99.99,,,-99.99,,2013-03-26 02:52:00,
2013-03-25 21:02:00,25.0,5.0,29.97,North,-999,-999.0,-999.0,41,-99.99,,,-99.99,,2013-03-26 03:02:00,
2013-03-25 21:12:00,25.0,5.0,29.97,North,-999,-999.0,-999.0,41,-99.99,,,-99.99,,2013-03-26 03:12:00,
2013-03-25 21:22:00,24.0,6.0,29.97,North,-999,-999.0,-999.0,45,-99.99,,,-99.99,,2013-03-26 03:22:00,
2013-03-25 21:33:00,24.0,6.0,29.97,North,-999,-999.0,-999.0,45,-99.99,,,-99.99,,2013-03-26 03:33:00,
2013-03-25 21:42:00,24.0,6.0,29.97,North,-999,-999.0,-999.0,45,-99.99,,,-99.99,,2013-03-26 03:42:00,
2013-03-25 21:53:00,24.0,5.0,29.97,North,-999,-999.0,-999.0,44,-99.99,,,-99.99,,2013-03-26 03:53:00,
2013-03-25 22:03:00,23.0,5.0,29.97,North,-999,-999.0,-999.0,45,-99.99,,,-99.99,,2013-03-26 04:03:00,
2013-03-25 22:12:00,24.0,6.0,29.97,North,-999,-999.0,-999.0,45,-99.99,,,-99.99,,2013-03-26 04:12:00,
2013-03-25 22:23:00,24.0,6.0,29.97,North,-999,-999.0,-999.0,45,-99.99,,,-99.99,,2013-03-26 04:23:00,
2013-03-25 22:32:00,23.0,6.0,29.98,North,-999,-999.0,-999.0,47,-99.99,,,-99.99,,2013-03-26 04:32:00,
2013-03-25 22:43:00,23.0,6.0,29.98,North,-999,-999.0,-999.0,47,-99.99,,,-99.99,,2013-03-26 04:43:00,
2013-03-25 22:52:00,23.0,6.0,29.98,North,-999,-999.0,-999.0,48,-99.99,,,-99.99,,2013-03-26 04:52:00,
2013-03-25 23:02:00,24.0,7.0,29.98,North,-999,-999.0,-999.0,48,-99.99,,,-99.99,,2013-03-26 05:02:00,
2013-03-25 23:12:00,24.0,7.0,29.98,North,-999,-999.0,-999.0,48,-99.99,,,-99.99,,2013-03-26 05:12:00,
2013-03-25 23:22:00,24.0,8.0,29.98,North,-999,-999.0,-999.0,50,-99.99,,,-99.99,,2013-03-26 05:22:00,
2013-03-25 23:32:00,23.0,7.0,29.98,North,-999,-999.0,-999.0,49,-99.99,,,-99.99,,2013-03-26 05:32:00,
2013-03-25 23:42:00,23.0,7.0,29.98,North,-999,-999.0,-999.0,49,-99.99,,,-99.99,,2013-03-26 05:42:00,
2013-03-25 23:52:00,24.0,7.0,29.98,North,-999,-999.0,-999.0,48,-99.99,,,-99.99,,2013-03-26 05:52:00,